Terminal Aerodrome Forecast
Issued by NWS Cleveland, OH

Home | Current Version | Previous Version | Text Only | Print | Product List | Glossary On
Versions: 1 2 3 4 5 6 7 8 9 10 11 12 13 14
000
FTUS41 KCLE 220300 AAA
TAFERI
TAF AMD
KERI 220331Z 2204/2224 12005KT P6SM OVC025
     FM220500 14006KT P6SM SCT025 BKN250
     FM221400 15009KT P6SM SCT045 BKN120
     FM221800 15011KT P6SM BKN045
     FM222200 15009KT P6SM OVC035=

USA.gov is the U.S. government's official web portal to all federal, state and local government web resources and services.